Weather History for KTUP - March, 2014

Change the Weather History Date:

Sunday, March 30, 2014

  Actual Average Record
Temperature  
Mean Temperature 50 °F 58 °F  
Max Temperature 67 °F 70 °F 86 °F (1963)
Min Temperature 33 °F 46 °F 25 °F (1964)
Degree Days  
Heating Degree Days 15 8  
Month to date heating degree days 452 347  
Since 1 July heating degree days 3282 2778  
Cooling Degree Days 0 1  
Month to date cooling degree days 0 8  
Year to date cooling degree days 0 10  
Moisture  
Dew Point 36 °F    
Average Humidity 62    
Maximum Humidity 92    
Minimum Humidity 32    
Precipitation  
Precipitation 0.00 in 0.15 in 2.86 in (1939)
Month to date precipitation 3.08 4.67  
Year to date precipitation 9.17 14.11  
Snow  
Snow 0.00 in 0.00 in T in (1987)
Month to date snowfall T 0.3  
Since 1 July snowfall 0.5 2.1  
Snow Depth 0.00 in    
Sea Level Pressure  
Sea Level Pressure 30.22 in    
Wind  
Wind Speed 4 mph (NNE)    
Max Wind Speed 13 mph    
Max Gust Speed 15 mph    
Visibility 8 miles    
Events      
T = Trace of Precipitation, MM = Missing Value Source: NWS Daily Summary

Daily Weather History Graph

Daily Weather History Graph

Search for Another Location

Airport or City:

Trip Planner

Search our weather history database for the weather conditions in past years. The results will help you decide how hot, cold, wet, or windy it might be!

Date:

Astronomy

Mar. 30, 2014 Rise Set
Actual Time 6:45 AM CDT 7:14 PM CDT
Civil Twilight 6:19 AM CDT 7:39 PM CDT
Nautical Twilight 5:50 AM CDT 8:09 PM CDT
Astronomical Twilight 5:20 AM CDT 8:39 PM CDT
Moon 6:30 AM CDT (3/30) 7:25 PM CDT (3/30)
Length of Visible Light 13h 19m
Length of Day
12h 29m
Waning Crescent, 0% of the Moon is Illuminated
Mar 30
Waning Crescent
Mar 30
New
Apr 7
First Quarter
Apr 15
Full
Apr 22
Last Quarter

Hourly Weather History & Observations

Time (CDT) Temp. Windchill Dew Point Humidity Pressure Visibility Wind Dir Wind Speed Gust Speed Precip Events Conditions
12:53 AM 39.9 °F - 35.1 °F 83% 30.24 in 7.0 mi Calm Calm - N/A   Clear
1:53 AM 39.9 °F 36.7 °F 35.1 °F 83% 30.25 in 7.0 mi NNW 4.6 mph - N/A   Clear
2:53 AM 39.0 °F 35.7 °F 34.0 °F 82% 30.25 in 7.0 mi North 4.6 mph - N/A   Clear
3:53 AM 36.0 °F 30.3 °F 33.1 °F 89% 30.23 in 5.0 mi NNE 6.9 mph - N/A   Clear
4:53 AM 36.0 °F 32.1 °F 33.1 °F 89% 30.26 in 5.0 mi North 4.6 mph - N/A   Clear
5:53 AM 35.1 °F 30.1 °F 32.0 °F 89% 30.26 in 5.0 mi NE 5.8 mph - N/A   Clear
6:53 AM 34.0 °F 28.8 °F 30.9 °F 89% 30.28 in 3.0 mi NNE 5.8 mph - N/A   Clear
7:53 AM 37.9 °F 34.4 °F 34.0 °F 86% 30.28 in 4.0 mi NE 4.6 mph - N/A   Clear
8:53 AM 44.1 °F 39.0 °F 36.0 °F 73% 30.29 in 6.0 mi ENE 9.2 mph - N/A   Haze
9:53 AM 46.9 °F - 36.0 °F 66% 30.30 in 8.0 mi ENE 6.9 mph - N/A   Clear
10:53 AM 50.0 °F - 36.0 °F 59% 30.29 in 10.0 mi Calm Calm - N/A   Clear
11:53 AM 54.0 °F - 37.0 °F 53% 30.27 in 10.0 mi NNE 5.8 mph - N/A   Clear
12:53 PM 57.0 °F - 35.1 °F 44% 30.27 in 10.0 mi Variable 6.9 mph - N/A   Clear
1:53 PM 61.0 °F - 36.0 °F 39% 30.24 in 10.0 mi Variable 6.9 mph - N/A   Clear
2:53 PM 63.0 °F - 36.0 °F 37% 30.20 in 10.0 mi Calm Calm - N/A   Clear
3:53 PM 66.0 °F - 37.9 °F 36% 30.17 in 10.0 mi South 3.5 mph - N/A   Clear
4:53 PM 66.0 °F - 36.0 °F 33% 30.16 in 10.0 mi Variable 4.6 mph - N/A   Clear
5:53 PM 66.0 °F - 36.0 °F 33% 30.14 in 10.0 mi Calm Calm - N/A   Clear
6:53 PM 62.1 °F - 39.9 °F 44% 30.14 in 10.0 mi Calm Calm - N/A   Clear
7:53 PM 57.0 °F - 37.9 °F 49% 30.15 in 10.0 mi Calm Calm - N/A   Clear
8:53 PM 53.1 °F - 39.0 °F 59% 30.15 in 10.0 mi Calm Calm - N/A   Clear
9:53 PM 48.9 °F - 39.0 °F 69% 30.15 in 10.0 mi Calm Calm - N/A   Clear
10:53 PM 46.0 °F 44.8 °F 39.9 °F 79% 30.14 in 10.0 mi West 3.5 mph - N/A   Clear
11:53 PM 45.0 °F - 39.0 °F 80% 30.14 in 10.0 mi Calm Calm - N/A   Clear